Weather History for Nenana, AK

Change the Weather History Date:

Thursday, April 4, 2013

  Actual Average Record
Temperature  
Mean Temperature 32 °F -  
Max Temperature 50 °F 30 °F 59 °F (1977)
Min Temperature 14 °F 6 °F -8 °F (2012)
Degree Days  
Heating Degree Days 33    
Moisture  
Dew Point -1 °F    
Average Humidity 36    
Maximum Humidity 68    
Minimum Humidity 23    
Precipitation  
Precipitation 0.00 in - - ()
Sea Level Pressure  
Sea Level Pressure 30.24 in    
Wind  
Wind Speed 13 mph (ENE)    
Max Wind Speed 21 mph    
Max Gust Speed 26 mph    
Visibility 10 miles    
Events      
Averages and records for this station are not official NWS values.
T = Trace of Precipitation, MM = Missing Value Source: NWS Daily Summary

Daily Weather History Graph

Daily Weather History Graph

Search for Another Location

Airport:

Trip Planner

Search our weather history database for the weather conditions in past years. The results will help you decide how hot, cold, wet, or windy it might be!

Date:

Astronomy

Apr. 04, 2013 Rise Set
Actual Time 7:00 AM AKDT 8:59 PM AKDT
Civil Twilight 6:09 AM AKDT 9:51 PM AKDT
Nautical Twilight 5:00 AM AKDT 11:01 PM AKDT
Astronomical Twilight 3:20 AM AKDT 12:47 AM AKDT
Moon 5:33 AM AKDT (4/4) 1:35 PM AKDT (4/4)
Length of Visible Light 15h 42m
Length of Day
13h 58m
Waning Crescent, 32% of the Moon is Illuminated
Apr 4
Waning Crescent
Apr 10
New
Apr 18
First Quarter
Apr 25
Full
May 2
Last Quarter

Hourly Weather History & Observations

Time (AKDT) Temp. Windchill Dew Point Humidity Pressure Visibility Wind Dir Wind Speed Gust Speed Precip Events Conditions
12:53 AM 19.0 °F 5.6 °F -2.9 °F 38% 30.45 in 10.0 mi ENE 13.8 mph 21.9 mph N/A   Clear
1:53 AM 19.0 °F 5.0 °F -2.9 °F 38% 30.45 in 10.0 mi ENE 15.0 mph - N/A   Clear
2:53 AM 19.0 °F 6.1 °F -2.9 °F 38% 30.44 in 10.0 mi ENE 12.7 mph 24.2 mph N/A   Clear
3:53 AM 18.0 °F 3.1 °F -2.9 °F 40% 30.43 in 10.0 mi ENE 16.1 mph 24.2 mph N/A   Clear
4:53 AM 18.0 °F 3.1 °F -2.9 °F 40% 30.43 in 10.0 mi ENE 16.1 mph 26.5 mph N/A   Clear
5:53 AM 16.0 °F 2.3 °F -4.0 °F 41% 30.42 in 10.0 mi ENE 12.7 mph - N/A   Clear
6:53 AM 16.0 °F 2.9 °F -4.0 °F 41% 30.40 in 10.0 mi East 11.5 mph 21.9 mph N/A   Clear
7:53 AM 14.0 °F -0.2 °F -5.1 °F 43% 30.39 in 10.0 mi East 12.7 mph - N/A   Clear
8:53 AM 17.1 °F 3.0 °F -5.1 °F 37% 30.38 in 10.0 mi ENE 13.8 mph 24.2 mph N/A   Clear
9:53 AM 18.0 °F 4.2 °F -5.1 °F 36% 30.36 in 10.0 mi East 13.8 mph 23.0 mph N/A   Clear
10:53 AM 19.0 °F 3.2 °F -5.1 °F 34% 30.34 in 10.0 mi East 19.6 mph - N/A   Clear
11:53 AM 21.0 °F 7.1 °F -5.1 °F 32% 30.32 in 10.0 mi ENE 16.1 mph 23.0 mph N/A   Clear
12:53 PM 23.0 °F 8.7 °F -5.1 °F 29% 30.30 in 10.0 mi East 18.4 mph - N/A   Clear
1:53 PM 25.0 °F 10.6 °F -5.1 °F 27% 30.27 in 10.0 mi East 20.7 mph 25.3 mph N/A   Clear
2:53 PM 27.0 °F 14.7 °F -5.1 °F 25% 30.24 in 10.0 mi East 16.1 mph 24.2 mph N/A   Clear
3:53 PM 28.9 °F 18.2 °F -4.0 °F 24% 30.21 in 10.0 mi ENE 13.8 mph 21.9 mph N/A   Clear
4:53 PM 28.9 °F 18.2 °F -5.1 °F 23% 30.17 in 10.0 mi ENE 13.8 mph 23.0 mph N/A   Clear
5:53 PM 28.9 °F 18.2 °F -5.1 °F 23% 30.15 in 10.0 mi ENE 13.8 mph 19.6 mph N/A   Clear
6:53 PM 28.9 °F 20.4 °F -2.9 °F 25% 30.12 in 10.0 mi NE 9.2 mph - N/A   Clear
7:53 PM 28.0 °F 18.6 °F -4.0 °F 25% 30.11 in 10.0 mi NE 10.4 mph - N/A   Clear
8:53 PM 25.0 °F 14.2 °F -2.9 °F 30% 30.11 in 10.0 mi NE 11.5 mph 18.4 mph N/A   Clear
9:53 PM 21.0 °F 10.6 °F -2.9 °F 35% 30.10 in 10.0 mi NE 9.2 mph - N/A   Clear
10:53 PM 19.0 °F 7.5 °F -4.0 °F 36% 30.09 in 10.0 mi ENE 10.4 mph - N/A   Clear
11:53 PM 18.0 °F 5.4 °F -4.0 °F 38% 30.07 in 10.0 mi ENE 11.5 mph - N/A   Clear